CZ-3B DEB, 40161

Orbit data source: Space-Track

CZ-3B DEB, 40161 is space debris in HEO originally from a launch on Sat, 04 Sep 2010 UTC launched from the Xichang Space Center, China (XSC). Debris objects in space refer to the collection of defunct objects orbiting the Earth. Examples of debris include non-operational satellites, rocket bodies, and fragments generated from explosions, collisions, or faulty payload assembly.

Loading next visibility...
Identifier
40161, 2010-042N
Orbit
HEO
Country
Flag of CNCN / PRC
Related business
Manufacturer
CALT
Mission
Spacecraft
Bus & Motor
Unknown
Mass
Unknown
Launch date (UTC)
2010-09-04 (16 years ago)
Launch vehicle
Unknown
Launch site
Xichang Space Center, China (XSC)
Object type
Payload
Rocket body
Debris
Shape & HBR
Unknown shape, 0.1 m
Radar Cross Section
Medium (>0.1 m² and <1 m²)

Expand to show TLE details & history
Last TLE update: 1 month ago

TLE from 1 month ago
0 CZ-3B DEB
1 40161U 10042N   26169.50309138 -.00001108  00000-0 -28505-1 0  9995
2 40161  28.4791   2.3173 7346571  10.1052 237.1678  1.99759087 91552
Epoch: 2026-06-18T12:04Z
TLE epoch observation values (Epoch: 2026-06-18T12:04:27.095Z)
Latitude
-11.06754°
Longitude
115.58545°
Altitude
36,496.738 km
Speed
1.904 km/s
True Right ascension
13h 33m 46s
True Declination
-11° 03' 24"
Sunlit
Object was in daylight at epoch
Visualization orbit readout
Latitude
Unknown
Longitude
Unknown
Altitude
Unknown
Speed
Unknown
Apparent Right ascension
Unknown
Apparent Declination
Unknown
Sunlit
N/A
Visualization observer readout
Local Sidereal Time
14:29:39
Azimuth
Unknown
Elevation
Unknown
Doppler factor
Unknown
Orbital elements
Apogee altitude
39,824.663 km
Perigee altitude
689.303 km
Semi-major axis
26,635.12 km
Eccentricity
0.73466
Inclination
28.4791°
RAAN
2.3173°
Arg. of periapsis
10.1052°
True anomaly
193.5405°
Mean anomaly
237.1678°
Eccentric anomaly
213.77007°
Mean motion
0.4993 °/min
Orbital period
721.01 mins
BSTAR
-0.028505
Loading maneuver chart data...
Computing Atmospheric mass density...
Loading historical data...
Loading historical data...
Loading historical data...
Loading historical data...
Loading historical data...
Loading historical data...
Loading historical data...

Documentation

Showing up to 5 results
|